Time,TemperatureF,DewpointF,PressureIn,WindDirection,WindDirectionDegrees,WindSpeedMPH,WindSpeedGustMPH,Humidity,HourlyPrecipIn,Conditions,Clouds,dailyrainin,SoftwareType,DateUTC
2013-02-27 00:02:00,32.0,28.0,29.74,ENE,67,13.0,22.0,84,0.00,,,0.01,,2013-02-27 05:02:00,
2013-02-27 00:12:00,32.0,28.0,29.74,ENE,67,13.0,22.0,84,0.00,,,0.01,,2013-02-27 05:12:00,
2013-02-27 00:22:00,32.0,27.0,29.74,East,84,10.0,18.0,83,0.00,,,0.01,,2013-02-27 05:22:00,
2013-02-27 00:32:00,32.0,27.0,29.72,East,79,11.0,24.0,83,0.00,,,0.01,,2013-02-27 05:32:00,
2013-02-27 00:42:00,32.0,27.0,29.72,East,79,11.0,24.0,83,0.00,,,0.01,,2013-02-27 05:42:00,
2013-02-27 00:52:00,33.0,28.0,29.72,ENE,59,11.0,21.0,83,0.00,,,0.01,,2013-02-27 05:52:00,
2013-02-27 01:02:00,33.0,28.0,29.71,ENE,67,14.0,22.0,83,0.00,,,0.01,,2013-02-27 06:02:00,
2013-02-27 01:11:00,33.0,28.0,29.71,ENE,67,14.0,22.0,83,0.00,,,0.01,,2013-02-27 06:11:00,
2013-02-27 01:21:00,33.0,28.0,29.71,East,89,14.0,23.0,82,0.00,,,0.01,,2013-02-27 06:21:00,
2013-02-27 01:33:00,33.0,28.0,29.70,East,81,11.0,22.0,83,0.00,,,0.01,,2013-02-27 06:33:00,
2013-02-27 01:42:00,33.0,28.0,29.70,East,81,11.0,22.0,83,0.00,,,0.01,,2013-02-27 06:42:00,
2013-02-27 01:52:00,33.0,29.0,29.70,ENE,63,14.0,19.0,84,0.00,,,0.01,,2013-02-27 06:52:00,
2013-02-27 02:01:00,32.0,28.0,29.69,ENE,59,12.0,21.0,86,0.00,,,0.01,,2013-02-27 07:01:00,
2013-02-27 02:12:00,32.0,28.0,29.69,ENE,59,12.0,21.0,86,0.00,,,0.01,,2013-02-27 07:12:00,
2013-02-27 02:21:00,32.0,29.0,29.69,ENE,67,14.0,24.0,88,0.00,,,0.01,,2013-02-27 07:21:00,
2013-02-27 02:32:00,32.0,29.0,29.68,NE,53,9.0,21.0,90,0.00,,,0.01,,2013-02-27 07:32:00,
2013-02-27 02:42:00,32.0,29.0,29.68,NE,53,9.0,21.0,90,0.00,,,0.01,,2013-02-27 07:42:00,
2013-02-27 02:52:00,31.0,29.0,29.68,NE,37,13.0,22.0,91,0.00,,,0.01,,2013-02-27 07:52:00,
2013-02-27 03:01:00,31.0,29.0,29.67,NE,42,15.0,20.0,92,0.00,,,0.01,,2013-02-27 08:01:00,
2013-02-27 03:11:00,31.0,29.0,29.67,NE,42,15.0,20.0,92,0.00,,,0.01,,2013-02-27 08:11:00,
2013-02-27 03:21:00,31.0,29.0,29.66,NE,50,10.0,19.0,92,0.00,,,0.01,,2013-02-27 08:21:00,
2013-02-27 03:32:00,31.0,29.0,29.66,NE,55,9.0,21.0,92,0.00,,,0.01,,2013-02-27 08:32:00,
2013-02-27 03:42:00,31.0,29.0,29.66,NE,55,9.0,21.0,92,0.00,,,0.01,,2013-02-27 08:42:00,
2013-02-27 03:53:00,31.0,29.0,29.65,NE,47,9.0,20.0,92,0.00,,,0.01,,2013-02-27 08:53:00,
2013-02-27 04:02:00,31.0,29.0,29.65,NE,52,11.0,21.0,92,0.00,,,0.01,,2013-02-27 09:02:00,
2013-02-27 04:12:00,31.0,29.0,29.65,NE,52,11.0,21.0,92,0.00,,,0.01,,2013-02-27 09:12:00,
2013-02-27 04:22:00,31.0,29.0,29.65,NE,51,12.0,20.0,92,0.00,,,0.01,,2013-02-27 09:22:00,
2013-02-27 04:32:00,31.0,29.0,29.65,NNE,33,10.0,22.0,92,0.00,,,0.01,,2013-02-27 09:32:00,
2013-02-27 04:42:00,31.0,29.0,29.65,NNE,33,10.0,22.0,92,0.00,,,0.01,,2013-02-27 09:42:00,
2013-02-27 04:52:00,31.0,29.0,29.65,NNE,33,10.0,22.0,92,0.00,,,0.01,,2013-02-27 09:52:00,
2013-02-27 05:01:00,31.0,29.0,29.63,NNE,20,10.0,21.0,93,0.00,,,0.01,,2013-02-27 10:01:00,
2013-02-27 05:12:00,31.0,29.0,29.63,NNE,20,10.0,21.0,93,0.00,,,0.01,,2013-02-27 10:12:00,
2013-02-27 05:22:00,31.0,29.0,29.63,ENE,67,12.0,22.0,94,0.00,,,0.01,,2013-02-27 10:22:00,
2013-02-27 05:32:00,31.0,29.0,29.63,ENE,73,8.0,22.0,94,0.00,,,0.01,,2013-02-27 10:32:00,
2013-02-27 05:42:00,31.0,29.0,29.63,ENE,73,8.0,22.0,94,0.00,,,0.01,,2013-02-27 10:42:00,
2013-02-27 05:53:00,31.0,29.0,29.64,NE,51,10.0,20.0,94,0.00,,,0.01,,2013-02-27 10:53:00,
2013-02-27 06:02:00,31.0,29.0,29.63,NNE,30,15.0,20.0,94,0.00,,,0.01,,2013-02-27 11:02:00,
2013-02-27 06:12:00,31.0,29.0,29.63,NNE,30,15.0,20.0,94,0.00,,,0.01,,2013-02-27 11:12:00,
2013-02-27 06:22:00,31.0,29.0,29.63,ENE,60,7.0,19.0,94,0.00,,,0.01,,2013-02-27 11:22:00,
2013-02-27 06:32:00,31.0,29.0,29.63,NE,55,11.0,19.0,94,0.00,,,0.01,,2013-02-27 11:32:00,
2013-02-27 06:42:00,31.0,29.0,29.63,NE,55,11.0,19.0,94,0.00,,,0.01,,2013-02-27 11:42:00,
2013-02-27 06:52:00,31.0,29.0,29.64,NE,45,9.0,17.0,93,0.00,,,0.01,,2013-02-27 11:52:00,
2013-02-27 07:02:00,31.0,29.0,29.64,ENE,57,8.0,19.0,94,0.00,,,0.01,,2013-02-27 12:02:00,
2013-02-27 07:13:00,31.0,29.0,29.64,ENE,57,8.0,19.0,94,0.00,,,0.01,,2013-02-27 12:13:00,
2013-02-27 07:22:00,31.0,29.0,29.65,NE,51,5.0,18.0,94,0.00,,,0.01,,2013-02-27 12:22:00,
2013-02-27 07:33:00,31.0,29.0,29.65,NE,38,8.0,17.0,94,0.00,,,0.01,,2013-02-27 12:33:00,
2013-02-27 07:42:00,31.0,29.0,29.65,NE,38,8.0,17.0,94,0.00,,,0.01,,2013-02-27 12:42:00,
2013-02-27 07:53:00,31.0,29.0,29.64,NE,40,10.0,19.0,94,0.00,,,0.01,,2013-02-27 12:53:00,
2013-02-27 08:02:00,31.0,29.0,29.65,ENE,60,6.0,20.0,94,0.00,,,0.01,,2013-02-27 13:02:00,
2013-02-27 08:11:00,31.0,29.0,29.65,ENE,60,6.0,20.0,94,0.00,,,0.01,,2013-02-27 13:11:00,
2013-02-27 08:22:00,31.0,29.0,29.65,ENE,67,7.0,21.0,94,0.00,,,0.01,,2013-02-27 13:22:00,
2013-02-27 08:32:00,31.0,29.0,29.65,NNE,31,10.0,20.0,93,0.00,,,0.01,,2013-02-27 13:32:00,
2013-02-27 08:42:00,31.0,29.0,29.65,NNE,31,10.0,20.0,93,0.00,,,0.01,,2013-02-27 13:42:00,
2013-02-27 08:52:00,31.0,29.0,29.65,East,80,8.0,19.0,93,0.00,,,0.01,,2013-02-27 13:52:00,
2013-02-27 09:02:00,31.0,29.0,29.65,NE,40,8.0,20.0,93,0.00,,,0.01,,2013-02-27 14:02:00,
2013-02-27 09:12:00,31.0,29.0,29.65,NE,40,8.0,20.0,93,0.00,,,0.01,,2013-02-27 14:12:00,
2013-02-27 09:22:00,31.0,29.0,29.65,NNE,33,10.0,16.0,93,0.00,,,0.01,,2013-02-27 14:22:00,
2013-02-27 09:32:00,32.0,30.0,29.65,ENE,62,7.0,19.0,92,0.00,,,0.01,,2013-02-27 14:32:00,
2013-02-27 09:42:00,32.0,30.0,29.65,ENE,62,7.0,19.0,92,0.00,,,0.01,,2013-02-27 14:42:00,
2013-02-27 09:52:00,32.0,30.0,29.65,NE,40,9.0,20.0,92,0.00,,,0.01,,2013-02-27 14:52:00,
2013-02-27 10:02:00,32.0,30.0,29.65,East,83,8.0,18.0,92,0.00,,,0.01,,2013-02-27 15:02:00,
2013-02-27 10:12:00,32.0,30.0,29.65,East,83,8.0,18.0,92,0.00,,,0.01,,2013-02-27 15:12:00,
2013-02-27 10:22:00,32.0,30.0,29.65,NE,53,11.0,16.0,92,0.00,,,0.01,,2013-02-27 15:22:00,
2013-02-27 10:32:00,32.0,30.0,29.64,NE,34,4.0,13.0,92,0.00,,,0.01,,2013-02-27 15:32:00,
2013-02-27 10:42:00,32.0,30.0,29.64,NE,34,4.0,13.0,92,0.00,,,0.01,,2013-02-27 15:42:00,
2013-02-27 10:52:00,32.0,30.0,29.64,NE,38,5.0,18.0,92,0.00,,,0.01,,2013-02-27 15:52:00,
2013-02-27 11:02:00,32.0,30.0,29.64,ENE,67,5.0,17.0,92,0.00,,,0.01,,2013-02-27 16:02:00,
2013-02-27 11:12:00,32.0,30.0,29.64,ENE,67,5.0,17.0,92,0.00,,,0.01,,2013-02-27 16:12:00,
2013-02-27 11:22:00,32.0,30.0,29.64,ENE,76,10.0,16.0,91,0.00,,,0.01,,2013-02-27 16:22:00,
2013-02-27 11:32:00,32.0,30.0,29.64,NE,55,9.0,17.0,91,0.00,,,0.01,,2013-02-27 16:32:00,
2013-02-27 11:42:00,32.0,30.0,29.64,NE,55,9.0,17.0,91,0.00,,,0.01,,2013-02-27 16:42:00,
2013-02-27 11:52:00,32.0,30.0,29.64,ENE,75,8.0,19.0,91,0.00,,,0.01,,2013-02-27 16:52:00,
2013-02-27 12:02:00,32.0,30.0,29.63,ENE,60,11.0,15.0,91,0.00,,,0.01,,2013-02-27 17:02:00,
2013-02-27 12:11:00,32.0,30.0,29.63,ENE,60,11.0,15.0,91,0.00,,,0.01,,2013-02-27 17:11:00,
2013-02-27 12:21:00,32.0,30.0,29.63,East,97,7.0,17.0,91,0.00,,,0.01,,2013-02-27 17:21:00,
2013-02-27 12:32:00,33.0,31.0,29.64,NE,44,9.0,19.0,91,0.00,,,0.01,,2013-02-27 17:32:00,
2013-02-27 12:42:00,33.0,31.0,29.64,NE,44,9.0,19.0,91,0.00,,,0.01,,2013-02-27 17:42:00,
2013-02-27 12:52:00,33.0,31.0,29.63,NE,45,9.0,18.0,91,0.00,,,0.01,,2013-02-27 17:52:00,
2013-02-27 13:02:00,33.0,31.0,29.63,NE,50,11.0,18.0,91,0.00,,,0.01,,2013-02-27 18:02:00,
2013-02-27 13:11:00,33.0,31.0,29.63,NE,50,11.0,18.0,91,0.00,,,0.01,,2013-02-27 18:11:00,
2013-02-27 13:22:00,33.0,31.0,29.63,ENE,61,8.0,16.0,92,0.00,,,0.01,,2013-02-27 18:22:00,
2013-02-27 13:32:00,33.0,31.0,29.63,ENE,70,10.0,17.0,93,0.00,,,0.01,,2013-02-27 18:32:00,
2013-02-27 13:42:00,33.0,31.0,29.63,ENE,70,10.0,17.0,93,0.00,,,0.01,,2013-02-27 18:42:00,
2013-02-27 13:52:00,33.0,31.0,29.63,NE,54,7.0,17.0,93,0.00,,,0.01,,2013-02-27 18:52:00,
2013-02-27 14:01:00,33.0,31.0,29.63,ENE,68,11.0,17.0,93,0.01,,,0.02,,2013-02-27 19:01:00,
2013-02-27 14:12:00,33.0,31.0,29.63,ENE,68,11.0,17.0,93,0.01,,,0.02,,2013-02-27 19:12:00,
2013-02-27 14:21:00,33.0,31.0,29.62,NE,53,12.0,20.0,92,0.02,,,0.03,,2013-02-27 19:21:00,
2013-02-27 14:32:00,33.0,31.0,29.62,ENE,61,10.0,19.0,92,0.02,,,0.02,,2013-02-27 19:32:00,
2013-02-27 14:42:00,33.0,31.0,29.62,ENE,61,10.0,19.0,92,0.02,,,0.02,,2013-02-27 19:42:00,
2013-02-27 14:52:00,33.0,31.0,29.62,ENE,63,10.0,16.0,93,0.02,,,0.02,,2013-02-27 19:52:00,
2013-02-27 15:02:00,33.0,31.0,29.62,NE,48,6.0,15.0,93,0.02,,,0.03,,2013-02-27 20:02:00,
2013-02-27 15:12:00,33.0,31.0,29.62,NE,48,6.0,15.0,93,0.02,,,0.03,,2013-02-27 20:12:00,
2013-02-27 15:22:00,33.0,31.0,29.62,NNE,28,4.0,17.0,93,0.01,,,0.03,,2013-02-27 20:22:00,
2013-02-27 15:32:00,33.0,31.0,29.62,NE,54,4.0,18.0,93,0.01,,,0.03,,2013-02-27 20:32:00,
2013-02-27 15:42:00,33.0,31.0,29.62,NE,54,4.0,18.0,93,0.01,,,0.03,,2013-02-27 20:42:00,
2013-02-27 15:52:00,33.0,31.0,29.62,East,84,11.0,15.0,94,0.01,,,0.03,,2013-02-27 20:52:00,
2013-02-27 16:02:00,33.0,31.0,29.62,NE,47,6.0,14.0,94,0.00,,,0.03,,2013-02-27 21:02:00,
2013-02-27 16:11:00,33.0,31.0,29.62,NE,47,6.0,14.0,94,0.00,,,0.03,,2013-02-27 21:11:00,
2013-02-27 16:22:00,33.0,31.0,29.63,NNE,27,8.0,16.0,94,0.00,,,0.03,,2013-02-27 21:22:00,
2013-02-27 16:32:00,33.0,31.0,29.63,NE,54,8.0,17.0,94,0.00,,,0.03,,2013-02-27 21:32:00,
2013-02-27 16:42:00,33.0,31.0,29.63,NE,54,8.0,17.0,94,0.00,,,0.03,,2013-02-27 21:42:00,
2013-02-27 16:52:00,33.0,31.0,29.63,ENE,62,1.0,13.0,94,0.01,,,0.04,,2013-02-27 21:52:00,
2013-02-27 17:01:00,33.0,31.0,29.63,ENE,78,7.0,16.0,94,0.01,,,0.04,,2013-02-27 22:01:00,
2013-02-27 17:11:00,33.0,31.0,29.63,ENE,78,7.0,16.0,94,0.01,,,0.04,,2013-02-27 22:11:00,
2013-02-27 17:21:00,33.0,31.0,29.63,NNE,21,8.0,17.0,94,0.01,,,0.04,,2013-02-27 22:21:00,
2013-02-27 17:32:00,33.0,31.0,29.64,NE,51,3.0,14.0,94,0.01,,,0.04,,2013-02-27 22:32:00,
2013-02-27 17:42:00,33.0,31.0,29.64,NE,51,3.0,14.0,94,0.01,,,0.04,,2013-02-27 22:42:00,
2013-02-27 17:52:00,33.0,31.0,29.65,NE,36,4.0,15.0,94,0.00,,,0.04,,2013-02-27 22:52:00,
2013-02-27 18:01:00,33.0,31.0,29.65,NE,55,11.0,20.0,94,0.00,,,0.04,,2013-02-27 23:01:00,
2013-02-27 18:11:00,33.0,31.0,29.65,NE,55,11.0,20.0,94,0.00,,,0.04,,2013-02-27 23:11:00,
2013-02-27 18:21:00,33.0,31.0,29.65,NNE,25,9.0,20.0,94,0.00,,,0.04,,2013-02-27 23:21:00,
2013-02-27 18:32:00,33.0,31.0,29.65,NE,54,6.0,15.0,94,0.00,,,0.04,,2013-02-27 23:32:00,
2013-02-27 18:42:00,33.0,31.0,29.65,NE,54,6.0,15.0,94,0.00,,,0.04,,2013-02-27 23:42:00,
2013-02-27 18:53:00,33.0,31.0,29.66,NE,44,6.0,15.0,94,0.00,,,0.04,,2013-02-27 23:53:00,
2013-02-27 19:02:00,33.0,31.0,29.66,NE,42,7.0,14.0,94,0.00,,,0.04,,2013-02-28 00:02:00,
2013-02-27 19:12:00,33.0,31.0,29.66,NE,42,7.0,14.0,94,0.00,,,0.04,,2013-02-28 00:12:00,
2013-02-27 19:21:00,33.0,32.0,29.66,ENE,67,3.0,20.0,95,0.00,,,0.04,,2013-02-28 00:21:00,
2013-02-27 19:32:00,33.0,32.0,29.66,ENE,57,11.0,17.0,95,0.00,,,0.04,,2013-02-28 00:32:00,
2013-02-27 19:42:00,33.0,32.0,29.66,ENE,57,11.0,17.0,95,0.00,,,0.04,,2013-02-28 00:42:00,
2013-02-27 19:52:00,33.0,32.0,29.67,NE,36,5.0,17.0,95,0.00,,,0.04,,2013-02-28 00:52:00,
2013-02-27 20:01:00,33.0,32.0,29.67,NNE,24,8.0,15.0,95,0.00,,,0.04,,2013-02-28 01:01:00,
2013-02-27 20:11:00,33.0,32.0,29.67,NNE,24,8.0,15.0,95,0.00,,,0.04,,2013-02-28 01:11:00,
2013-02-27 20:22:00,33.0,32.0,29.67,NE,41,10.0,16.0,95,0.00,,,0.04,,2013-02-28 01:22:00,
2013-02-27 20:32:00,33.0,32.0,29.67,NE,49,10.0,23.0,95,0.00,,,0.04,,2013-02-28 01:32:00,
2013-02-27 20:42:00,33.0,32.0,29.67,NE,49,10.0,23.0,95,0.00,,,0.04,,2013-02-28 01:42:00,
2013-02-27 20:52:00,33.0,32.0,29.67,NE,44,7.0,15.0,95,0.00,,,0.04,,2013-02-28 01:52:00,
2013-02-27 21:01:00,33.0,32.0,29.67,NE,53,4.0,13.0,95,0.00,,,0.04,,2013-02-28 02:01:00,
2013-02-27 21:11:00,33.0,32.0,29.67,NE,53,4.0,13.0,95,0.00,,,0.04,,2013-02-28 02:11:00,
2013-02-27 21:22:00,33.0,32.0,29.67,NNE,24,1.0,10.0,95,0.00,,,0.04,,2013-02-28 02:22:00,
2013-02-27 21:32:00,33.0,32.0,29.67,NNE,22,4.0,10.0,95,0.00,,,0.04,,2013-02-28 02:32:00,
2013-02-27 21:41:00,33.0,32.0,29.67,NNE,22,4.0,10.0,95,0.00,,,0.04,,2013-02-28 02:41:00,
2013-02-27 21:52:00,33.0,32.0,29.67,NNE,22,4.0,10.0,95,0.00,,,0.04,,2013-02-28 02:52:00,
2013-02-27 22:01:00,33.0,32.0,29.68,NE,40,6.0,13.0,95,0.00,,,0.04,,2013-02-28 03:01:00,
2013-02-27 22:11:00,33.0,32.0,29.68,NE,40,6.0,13.0,95,0.00,,,0.04,,2013-02-28 03:11:00,
2013-02-27 22:21:00,33.0,31.0,29.68,North,11,6.0,12.0,94,0.00,,,0.04,,2013-02-28 03:21:00,
2013-02-27 22:32:00,33.0,31.0,29.67,NNE,31,7.0,12.0,94,0.00,,,0.04,,2013-02-28 03:32:00,
2013-02-27 22:42:00,33.0,31.0,29.67,NNE,31,7.0,12.0,94,0.00,,,0.04,,2013-02-28 03:42:00,
2013-02-27 22:52:00,33.0,31.0,29.67,NNE,24,7.0,14.0,94,0.00,,,0.04,,2013-02-28 03:52:00,
2013-02-27 23:02:00,33.0,31.0,29.67,NNE,16,10.0,15.0,94,0.00,,,0.04,,2013-02-28 04:02:00,
2013-02-27 23:11:00,33.0,31.0,29.67,NNE,16,10.0,15.0,94,0.00,,,0.04,,2013-02-28 04:11:00,
2013-02-27 23:22:00,33.0,31.0,29.67,NNE,24,8.0,13.0,94,0.00,,,0.04,,2013-02-28 04:22:00,
2013-02-27 23:32:00,33.0,31.0,29.67,North,5,5.0,10.0,94,0.00,,,0.04,,2013-02-28 04:32:00,
2013-02-27 23:42:00,33.0,31.0,29.67,North,5,5.0,10.0,94,0.00,,,0.04,,2013-02-28 04:42:00,
2013-02-27 23:52:00,33.0,31.0,29.67,NNE,15,2.0,11.0,94,0.00,,,0.04,,2013-02-28 04:52:00,